Location: Bratislava
(48.1500°N, 17.1170°E)
Time: 05:11:16
(UTC+02:00)

BlueWalker 3 - Pass Details

Date: 17 May 2026
Orbit: 447 x 456 km, 53.2° (Epoch: 10 June)

Event Time Altitude Azimuth Distance (km) Brightness Sun altitude
Exits shadow 23:53:33 13° 75° (ENE) 1,374 4.2 -21.3°
Drops below altitude 10° 23:54:05 10° 72° (ENE) 1,574 4.5 -21.3°
Sets 23:56:16 0° 65° (ENE) 2,449 5.6 -21.4°
